MAS2274 WIII-WMKK

Flight info

Callsign MAS2274
Flight time 1h 35m
Altitude 40000
Route DOLTA T25 GUSKO A585 PLB G579 VJB A457 GUPTA GUPTA1H
Aircraft A333/H-SDE3GHIJ2J3J5M1RVWXY/LB2D1

Departure

Time 2026-05-04 13:55
Airport Soekarno-Hatta International Airport (WIII)

Arrival

Time 2026-05-04 15:31
Airport Kuala Lumpur International Airport (WMKK)
Time Latitude Longitude Altitude Speed Heading
2026-05-04 13:35 -6.11831 106.65720 42 ft 0 kts 68°
2026-05-04 13:42 -6.11840 106.65698 40 ft 2 kts 63°
2026-05-04 13:42 -6.11848 106.65684 39 ft 2 kts 56°
2026-05-04 13:42 -6.11859 106.65671 39 ft 2 kts 36°
2026-05-04 13:42 -6.11874 106.65665 36 ft 2 kts 345°
2026-05-04 13:43 -6.11889 106.65671 39 ft 2 kts 350°
2026-05-04 13:43 -6.11904 106.65677 39 ft 1 kts 337°
2026-05-04 13:43 -6.11905 106.65677 39 ft 1 kts 338°
2026-05-04 13:46 -6.11902 106.65676 39 ft 2 kts 338°
2026-05-04 13:46 -6.11881 106.65667 37 ft 5 kts 338°
2026-05-04 13:46 -6.11838 106.65650 40 ft 8 kts 339°
2026-05-04 13:47 -6.11775 106.65625 42 ft 11 kts 338°
2026-05-04 13:47 -6.11694 106.65593 42 ft 14 kts 338°
2026-05-04 13:47 -6.11627 106.65598 42 ft 6 kts 35°
2026-05-04 13:47 -6.11602 106.65635 42 ft 7 kts 62°
2026-05-04 13:48 -6.11582 106.65680 42 ft 8 kts 66°
2026-05-04 13:48 -6.11559 106.65734 42 ft 9 kts 67°
2026-05-04 13:48 -6.11531 106.65800 42 ft 11 kts 68°
2026-05-04 13:48 -6.11500 106.65879 42 ft 13 kts 69°
2026-05-04 13:49 -6.11465 106.65969 42 ft 15 kts 68°
2026-05-04 13:49 -6.11425 106.66070 42 ft 16 kts 68°
2026-05-04 13:49 -6.11381 106.66180 40 ft 18 kts 68°
2026-05-04 13:49 -6.11334 106.66298 42 ft 19 kts 69°
2026-05-04 13:50 -6.11285 106.66421 43 ft 19 kts 68°
2026-05-04 13:50 -6.11234 106.66551 42 ft 20 kts 67°
2026-05-04 13:50 -6.11179 106.66686 42 ft 21 kts 68°
2026-05-04 13:50 -6.11123 106.66826 42 ft 22 kts 68°
2026-05-04 13:51 -6.11070 106.66944 42 ft 13 kts 51°
2026-05-04 13:51 -6.11044 106.66964 42 ft 0 kts 29°
2026-05-04 13:52 -6.11023 106.66969 42 ft 0 kts 10°
2026-05-04 13:53 -6.11006 106.66969 42 ft 6 kts 355°
2026-05-04 13:53 -6.10963 106.66944 42 ft 9 kts 316°
2026-05-04 13:54 -6.10946 106.66779 42 ft 0 kts 249°
2026-05-04 13:54 -6.10947 106.66778 42 ft 1 kts 249°
2026-05-04 13:54 -6.11273 106.65961 44 ft 122 kts 248°
2026-05-04 13:55 -6.11642 106.65047 207 ft 155 kts 245°
2026-05-04 13:55 -6.12451 106.62950 1224 ft 172 kts 253°
2026-05-04 13:55 -6.12369 106.61668 1378 ft 202 kts 289°
2026-05-04 13:56 -6.11850 106.60258 1621 ft 228 kts 292°
2026-05-04 13:56 -6.11255 106.58681 1883 ft 253 kts 290°
2026-05-04 13:56 -6.10068 106.55165 3059 ft 272 kts 288°
2026-05-04 13:57 -6.09492 106.53347 3817 ft 275 kts 288°
2026-05-04 13:57 -6.08919 106.51510 4601 ft 277 kts 287°
2026-05-04 13:58 -6.05485 106.46959 6872 ft 283 kts 328°
2026-05-04 13:58 -6.02660 106.45235 8135 ft 289 kts 330°
2026-05-04 13:58 -6.00916 106.44209 8902 ft 293 kts 330°
2026-05-04 13:59 -5.99125 106.43158 9721 ft 296 kts 330°
2026-05-04 13:59 -5.97353 106.42119 10316 ft 305 kts 330°
2026-05-04 13:59 -5.93448 106.39832 10874 ft 343 kts 330°
2026-05-04 14:00 -5.91353 106.38603 11350 ft 353 kts 330°
2026-05-04 14:00 -5.87053 106.36081 12562 ft 362 kts 330°
2026-05-04 14:00 -5.84869 106.34800 13190 ft 366 kts 330°
2026-05-04 14:01 -5.82657 106.33504 13735 ft 371 kts 330°
2026-05-04 14:01 -5.80411 106.32188 14219 ft 376 kts 330°
2026-05-04 14:01 -5.75871 106.29526 15343 ft 380 kts 331°
2026-05-04 14:02 -5.73581 106.28184 15870 ft 383 kts 331°
2026-05-04 14:02 -5.71270 106.26830 16400 ft 386 kts 331°
2026-05-04 14:02 -5.68944 106.25468 16914 ft 388 kts 331°
2026-05-04 14:02 -5.66604 106.24097 17427 ft 391 kts 331°
2026-05-04 14:03 -5.64242 106.22713 17930 ft 394 kts 331°
2026-05-04 14:03 -5.61869 106.21323 18390 ft 397 kts 331°
2026-05-04 14:03 -5.59473 106.19920 18802 ft 400 kts 331°
2026-05-04 14:03 -5.57064 106.18509 19199 ft 403 kts 331°
2026-05-04 14:04 -5.52188 106.15655 20013 ft 408 kts 331°
2026-05-04 14:04 -5.49725 106.14213 20400 ft 411 kts 331°
2026-05-04 14:04 -5.47248 106.12763 20804 ft 414 kts 331°
2026-05-04 14:05 -5.42244 106.09834 21613 ft 419 kts 332°
2026-05-04 14:05 -5.39718 106.08356 21985 ft 422 kts 332°
2026-05-04 14:05 -5.37171 106.06865 22381 ft 425 kts 332°
2026-05-04 14:06 -5.34611 106.05368 22767 ft 427 kts 332°
2026-05-04 14:06 -5.32034 106.03860 23145 ft 430 kts 332°
2026-05-04 14:06 -5.29442 106.02344 23508 ft 433 kts 332°
2026-05-04 14:06 -5.26832 106.00818 23835 ft 435 kts 332°
2026-05-04 14:07 -5.24214 105.99286 24170 ft 437 kts 332°
2026-05-04 14:07 -5.21591 105.97752 24543 ft 437 kts 332°
2026-05-04 14:07 -5.18957 105.96212 24880 ft 439 kts 332°
2026-05-04 14:07 -5.16315 105.94667 25207 ft 441 kts 332°
2026-05-04 14:08 -5.13661 105.93116 25541 ft 442 kts 332°
2026-05-04 14:08 -5.10988 105.91566 25881 ft 444 kts 332°
2026-05-04 14:08 -5.08303 105.90028 26198 ft 446 kts 332°
2026-05-04 14:08 -5.05599 105.88489 26532 ft 448 kts 332°
2026-05-04 14:09 -5.00151 105.85396 27163 ft 452 kts 332°
2026-05-04 14:09 -4.97408 105.83837 27484 ft 454 kts 332°
2026-05-04 14:10 -4.91893 105.80700 28101 ft 458 kts 332°
2026-05-04 14:10 -4.89113 105.79117 28418 ft 460 kts 332°
2026-05-04 14:10 -4.86327 105.77531 28713 ft 462 kts 332°
2026-05-04 14:10 -4.83562 105.75957 29007 ft 464 kts 332°
2026-05-04 14:11 -4.80716 105.74336 29298 ft 466 kts 332°
2026-05-04 14:11 -4.75055 105.71113 29831 ft 471 kts 332°
2026-05-04 14:11 -4.72235 105.69508 30051 ft 473 kts 332°
2026-05-04 14:12 -4.69367 105.67876 30272 ft 475 kts 332°
2026-05-04 14:12 -4.66491 105.66240 30518 ft 476 kts 332°
2026-05-04 14:12 -4.60714 105.62954 30965 ft 479 kts 332°
2026-05-04 14:13 -4.57810 105.61301 31182 ft 480 kts 332°
2026-05-04 14:13 -4.54898 105.59645 31410 ft 482 kts 332°
2026-05-04 14:13 -4.51982 105.57986 31641 ft 483 kts 332°
2026-05-04 14:13 -4.49053 105.56321 31838 ft 484 kts 332°
2026-05-04 14:14 -4.46123 105.54654 32071 ft 485 kts 332°
2026-05-04 14:14 -4.40269 105.51325 32752 ft 482 kts 332°
2026-05-04 14:14 -4.37362 105.49672 33120 ft 479 kts 332°
2026-05-04 14:15 -4.31588 105.46389 33818 ft 475 kts 332°
2026-05-04 14:15 -4.25848 105.43127 34348 ft 474 kts 332°
2026-05-04 14:16 -4.20111 105.39868 34824 ft 474 kts 332°
2026-05-04 14:16 -4.17246 105.38241 35070 ft 473 kts 332°
2026-05-04 14:17 -4.11522 105.34989 35565 ft 472 kts 332°
2026-05-04 14:17 -4.08702 105.33388 35818 ft 472 kts 332°
2026-05-04 14:17 -4.02995 105.30147 36272 ft 473 kts 331°
2026-05-04 14:18 -4.00125 105.28517 36406 ft 475 kts 332°
2026-05-04 14:18 -3.94392 105.25262 36940 ft 473 kts 332°
2026-05-04 14:19 -3.88674 105.22025 37471 ft 471 kts 332°
2026-05-04 14:19 -3.85820 105.20417 37731 ft 470 kts 332°
2026-05-04 14:19 -3.82970 105.18813 37950 ft 470 kts 332°
2026-05-04 14:19 -3.80122 105.17211 38202 ft 469 kts 332°
2026-05-04 14:20 -3.77281 105.15613 38430 ft 469 kts 332°
2026-05-04 14:20 -3.74436 105.14013 38642 ft 468 kts 332°
2026-05-04 14:20 -3.71599 105.12416 38841 ft 467 kts 332°
2026-05-04 14:21 -3.65946 105.09234 39272 ft 465 kts 332°
2026-05-04 14:21 -3.63134 105.07651 39471 ft 464 kts 332°
2026-05-04 14:21 -3.60321 105.06068 39663 ft 463 kts 331°
2026-05-04 14:21 -3.57518 105.04491 39872 ft 462 kts 331°
2026-05-04 14:22 -3.51896 105.01328 39975 ft 466 kts 332°
2026-05-04 14:22 -3.46237 104.98144 39977 ft 467 kts 332°
2026-05-04 14:23 -3.37756 104.93374 39983 ft 466 kts 331°
2026-05-04 14:24 -3.32104 104.90195 39980 ft 465 kts 331°
2026-05-04 14:24 -3.26475 104.87029 39984 ft 464 kts 331°
2026-05-04 14:25 -3.20854 104.83869 39981 ft 464 kts 331°
2026-05-04 14:25 -3.12416 104.79125 39989 ft 464 kts 331°
2026-05-04 14:26 -3.06794 104.75965 39988 ft 464 kts 331°
2026-05-04 14:26 -3.01168 104.72803 39996 ft 464 kts 331°
2026-05-04 14:27 -2.95544 104.69643 39995 ft 464 kts 331°
2026-05-04 14:27 -2.89887 104.66533 39993 ft 464 kts 336°
2026-05-04 14:28 -2.83766 104.64567 39994 ft 463 kts 348°
2026-05-04 14:28 -2.77457 104.63274 39987 ft 463 kts 350°
2026-05-04 14:29 -2.64774 104.60947 39992 ft 463 kts 350°
2026-05-04 14:30 -2.58438 104.59761 39995 ft 463 kts 350°
2026-05-04 14:31 -2.48941 104.57965 39993 ft 463 kts 350°
2026-05-04 14:32 -2.36323 104.55580 40001 ft 463 kts 350°
2026-05-04 14:32 -2.29994 104.54384 39998 ft 463 kts 350°
2026-05-04 14:33 -2.23661 104.53188 39999 ft 463 kts 350°
2026-05-04 14:33 -2.17328 104.51991 40006 ft 465 kts 350°
2026-05-04 14:34 -2.10945 104.50786 39997 ft 468 kts 350°
2026-05-04 14:34 -2.04549 104.49578 40002 ft 468 kts 350°
2026-05-04 14:35 -1.98154 104.48370 40009 ft 468 kts 350°
2026-05-04 14:35 -1.91758 104.47163 40007 ft 468 kts 350°
2026-05-04 14:36 -1.85368 104.45956 40004 ft 468 kts 350°
2026-05-04 14:36 -1.78967 104.44748 40010 ft 468 kts 350°
2026-05-04 14:37 -1.72563 104.43539 40008 ft 469 kts 350°
2026-05-04 14:37 -1.66152 104.42328 40004 ft 469 kts 350°
2026-05-04 14:38 -1.59748 104.41120 40016 ft 469 kts 350°
2026-05-04 14:38 -1.53341 104.39910 40010 ft 469 kts 350°
2026-05-04 14:39 -1.46929 104.38700 40009 ft 469 kts 350°
2026-05-04 14:39 -1.40531 104.37493 40005 ft 468 kts 350°
2026-05-04 14:40 -1.30983 104.35691 40007 ft 467 kts 350°
2026-05-04 14:40 -1.24551 104.34477 40006 ft 467 kts 350°
2026-05-04 14:41 -1.18200 104.33279 40004 ft 468 kts 350°
2026-05-04 14:42 -1.05414 104.30866 40007 ft 467 kts 350°
2026-05-04 14:42 -1.00107 104.29865 40005 ft 467 kts 350°
2026-05-04 14:43 -0.93717 104.28660 40004 ft 467 kts 350°
2026-05-04 14:43 -0.87330 104.27455 40009 ft 467 kts 350°
2026-05-04 14:44 -0.80944 104.26250 40004 ft 467 kts 350°
2026-05-04 14:44 -0.74554 104.25045 40013 ft 467 kts 350°
2026-05-04 14:45 -0.68167 104.23840 40004 ft 467 kts 350°
2026-05-04 14:45 -0.61777 104.22635 40003 ft 467 kts 350°
2026-05-04 14:46 -0.55392 104.21424 40009 ft 467 kts 349°
2026-05-04 14:46 -0.49014 104.20166 40011 ft 467 kts 349°
2026-05-04 14:47 -0.42633 104.18892 40008 ft 468 kts 349°
2026-05-04 14:47 -0.36249 104.17619 40009 ft 468 kts 349°
2026-05-04 14:48 -0.29888 104.16355 40004 ft 465 kts 349°
2026-05-04 14:48 -0.23555 104.15098 40008 ft 463 kts 349°
2026-05-04 14:49 -0.17225 104.13842 40009 ft 464 kts 349°
2026-05-04 14:49 -0.10895 104.12586 40011 ft 464 kts 349°
2026-05-04 14:50 -0.04570 104.11331 40005 ft 464 kts 349°
2026-05-04 14:50 0.01761 104.10074 39998 ft 464 kts 350°
2026-05-04 14:51 0.08102 104.08816 40002 ft 465 kts 350°
2026-05-04 14:51 0.14455 104.07555 40003 ft 465 kts 350°
2026-05-04 14:52 0.20804 104.06295 40004 ft 465 kts 350°
2026-05-04 14:52 0.27157 104.05034 40000 ft 465 kts 350°
2026-05-04 14:53 0.33507 104.03776 39996 ft 465 kts 350°
2026-05-04 14:53 0.39854 104.02518 39998 ft 465 kts 350°
2026-05-04 14:54 0.46208 104.01260 39994 ft 465 kts 350°
2026-05-04 14:54 0.52554 104.00003 39994 ft 465 kts 350°
2026-05-04 14:55 0.58905 103.98744 39997 ft 465 kts 350°
2026-05-04 14:55 0.65254 103.97483 39988 ft 465 kts 350°
2026-05-04 14:56 0.71600 103.96222 39990 ft 465 kts 350°
2026-05-04 14:56 0.77939 103.94918 39989 ft 465 kts 349°
2026-05-04 14:57 0.84273 103.93575 39987 ft 465 kts 349°
2026-05-04 14:57 0.90564 103.92239 39970 ft 465 kts 349°
2026-05-04 14:58 0.96895 103.90900 39975 ft 465 kts 349°
2026-05-04 14:58 1.03229 103.89563 39980 ft 465 kts 349°
2026-05-04 14:59 1.09557 103.88226 39669 ft 465 kts 349°
2026-05-04 14:59 1.15856 103.86894 38841 ft 460 kts 349°
2026-05-04 15:00 1.18985 103.86224 38309 ft 460 kts 348°
2026-05-04 15:00 1.22063 103.85321 37669 ft 463 kts 340°
2026-05-04 15:00 1.25019 103.84019 37054 ft 465 kts 336°
2026-05-04 15:01 1.30832 103.81118 36085 ft 470 kts 334°
2026-05-04 15:01 1.33747 103.79599 35988 ft 474 kts 334°
2026-05-04 15:01 1.39624 103.76543 35998 ft 477 kts 334°
2026-05-04 15:02 1.45519 103.73511 35985 ft 477 kts 334°
2026-05-04 15:02 1.51549 103.70806 35998 ft 474 kts 342°
2026-05-04 15:03 1.57815 103.68730 35986 ft 474 kts 344°
2026-05-04 15:03 1.63809 103.65992 35987 ft 477 kts 327°
2026-05-04 15:04 1.66388 103.63911 35973 ft 478 kts 316°
2026-05-04 15:04 1.68554 103.61388 35479 ft 481 kts 305°
2026-05-04 15:04 1.70264 103.58510 34882 ft 482 kts 299°
2026-05-04 15:04 1.71802 103.55533 34314 ft 482 kts 296°
2026-05-04 15:05 1.73264 103.52508 33666 ft 484 kts 296°
2026-05-04 15:05 1.74683 103.49503 32968 ft 485 kts 295°
2026-05-04 15:05 1.76123 103.46452 32278 ft 486 kts 296°
2026-05-04 15:05 1.77597 103.43362 31595 ft 486 kts 296°
2026-05-04 15:06 1.79045 103.40362 31023 ft 485 kts 296°
2026-05-04 15:06 1.80517 103.37338 30492 ft 482 kts 296°
2026-05-04 15:06 1.81981 103.34347 30013 ft 478 kts 296°
2026-05-04 15:07 1.84888 103.28427 28866 ft 471 kts 297°
2026-05-04 15:07 1.86326 103.25499 28302 ft 467 kts 296°
2026-05-04 15:07 1.87754 103.22590 27749 ft 464 kts 296°
2026-05-04 15:07 1.89168 103.19707 27223 ft 460 kts 296°
2026-05-04 15:08 1.90571 103.16847 26698 ft 457 kts 297°
2026-05-04 15:08 1.91965 103.14003 26180 ft 453 kts 297°
2026-05-04 15:08 1.93346 103.11187 25682 ft 449 kts 297°
2026-05-04 15:08 1.94715 103.08394 25195 ft 446 kts 297°
2026-05-04 15:09 1.96076 103.05617 24691 ft 443 kts 297°
2026-05-04 15:09 1.97426 103.02863 24199 ft 440 kts 297°
2026-05-04 15:09 1.98766 103.00131 23730 ft 437 kts 297°
2026-05-04 15:10 2.01310 102.94660 22606 ft 431 kts 295°
2026-05-04 15:10 2.02522 102.91930 22060 ft 428 kts 295°
2026-05-04 15:10 2.04923 102.86547 20999 ft 421 kts 295°
2026-05-04 15:11 2.06115 102.83886 20475 ft 417 kts 295°
2026-05-04 15:11 2.07298 102.81248 19958 ft 414 kts 295°
2026-05-04 15:11 2.08474 102.78628 19450 ft 411 kts 295°
2026-05-04 15:11 2.09640 102.76031 18967 ft 408 kts 295°
2026-05-04 15:12 2.10797 102.73456 18500 ft 404 kts 295°
2026-05-04 15:12 2.11944 102.70901 17986 ft 401 kts 295°
2026-05-04 15:12 2.13083 102.68366 17450 ft 398 kts 295°
2026-05-04 15:12 2.14210 102.65858 16931 ft 393 kts 295°
2026-05-04 15:13 2.15325 102.63374 16434 ft 389 kts 295°
2026-05-04 15:13 2.16430 102.60916 15929 ft 385 kts 295°
2026-05-04 15:13 2.17521 102.58487 15437 ft 381 kts 295°
2026-05-04 15:13 2.18602 102.56079 14948 ft 378 kts 294°
2026-05-04 15:14 2.19673 102.53695 14466 ft 374 kts 294°
2026-05-04 15:14 2.20732 102.51336 13989 ft 370 kts 294°
2026-05-04 15:14 2.21781 102.49000 13487 ft 367 kts 294°
2026-05-04 15:14 2.22820 102.46686 12951 ft 363 kts 294°
2026-05-04 15:15 2.23847 102.44397 12431 ft 359 kts 294°
2026-05-04 15:15 2.24867 102.42126 11897 ft 356 kts 294°
2026-05-04 15:15 2.25876 102.39879 11374 ft 353 kts 294°
2026-05-04 15:16 2.27864 102.35449 10505 ft 342 kts 294°
2026-05-04 15:16 2.28818 102.33323 10324 ft 328 kts 294°
2026-05-04 15:16 2.30616 102.29317 10019 ft 305 kts 294°
2026-05-04 15:17 2.31474 102.27404 9740 ft 299 kts 294°
2026-05-04 15:17 2.33155 102.23658 9018 ft 293 kts 294°
2026-05-04 15:17 2.33985 102.21808 8658 ft 290 kts 294°
2026-05-04 15:18 2.34797 102.19998 8293 ft 288 kts 294°
2026-05-04 15:18 2.35626 102.18152 7913 ft 286 kts 294°
2026-05-04 15:18 2.36437 102.16343 7539 ft 284 kts 294°
2026-05-04 15:19 2.38035 102.12782 6827 ft 281 kts 294°
2026-05-04 15:19 2.38832 102.11007 6484 ft 279 kts 294°
2026-05-04 15:19 2.40411 102.07486 5740 ft 276 kts 294°
2026-05-04 15:20 2.41195 102.05740 5364 ft 275 kts 294°
2026-05-04 15:20 2.41965 102.04023 5159 ft 266 kts 294°
2026-05-04 15:20 2.42704 102.02375 5067 ft 254 kts 294°
2026-05-04 15:20 2.43412 102.00795 4980 ft 244 kts 294°
2026-05-04 15:21 2.44093 101.99278 4884 ft 234 kts 294°
2026-05-04 15:21 2.44746 101.97821 4797 ft 225 kts 294°
2026-05-04 15:21 2.45987 101.95053 4528 ft 214 kts 294°
2026-05-04 15:22 2.46595 101.93699 4502 ft 213 kts 294°
2026-05-04 15:22 2.47189 101.92374 4528 ft 201 kts 294°
2026-05-04 15:22 2.48589 101.90049 4515 ft 197 kts 315°
2026-05-04 15:23 2.49654 101.89190 4518 ft 196 kts 324°
2026-05-04 15:23 2.50791 101.88422 4519 ft 198 kts 326°
2026-05-04 15:23 2.51940 101.87655 4521 ft 199 kts 325°
2026-05-04 15:23 2.53083 101.86883 4516 ft 194 kts 325°
2026-05-04 15:24 2.55020 101.85575 4493 ft 143 kts 325°
2026-05-04 15:24 2.56617 101.84498 4206 ft 139 kts 325°
2026-05-04 15:25 2.57422 101.83956 3986 ft 140 kts 325°
2026-05-04 15:25 2.58225 101.83415 3771 ft 138 kts 325°
2026-05-04 15:25 2.59020 101.82879 3596 ft 138 kts 325°
2026-05-04 15:26 2.60609 101.81808 3244 ft 137 kts 324°
2026-05-04 15:26 2.61402 101.81274 3061 ft 138 kts 324°
2026-05-04 15:26 2.62989 101.80204 2719 ft 137 kts 326°
2026-05-04 15:27 2.63780 101.79671 2548 ft 137 kts 326°
2026-05-04 15:27 2.65350 101.78613 2197 ft 136 kts 326°
2026-05-04 15:28 2.66912 101.77559 1853 ft 135 kts 326°
2026-05-04 15:28 2.67427 101.77212 1738 ft 135 kts 327°
2026-05-04 15:28 2.69229 101.75998 1332 ft 131 kts 327°
2026-05-04 15:29 2.69727 101.75663 1220 ft 130 kts 327°
2026-05-04 15:30 2.72742 101.73630 618 ft 130 kts 327°
2026-05-04 15:30 2.75009 101.72089 90 ft 132 kts 326°
2026-05-04 15:31 2.76032 101.71404 69 ft 32 kts 325°
2026-05-04 15:31 2.76218 101.71281 67 ft 32 kts 326°
2026-05-04 15:32 2.76573 101.70926 62 ft 17 kts 291°
2026-05-04 15:32 2.76530 101.70858 61 ft 3 kts 169°
2026-05-04 15:33 2.76479 101.70878 62 ft 5 kts 150°
2026-05-04 15:34 2.76327 101.70977 60 ft 13 kts 149°
2026-05-04 15:34 2.76238 101.71019 60 ft 14 kts 161°
2026-05-04 15:34 2.76061 101.71058 64 ft 12 kts 162°
2026-05-04 15:35 2.75907 101.71145 64 ft 12 kts 146°
2026-05-04 15:35 2.75845 101.71188 64 ft 9 kts 146°
2026-05-04 15:35 2.75801 101.71217 67 ft 6 kts 146°
2026-05-04 15:36 2.75743 101.71257 66 ft 5 kts 146°
2026-05-04 15:36 2.75712 101.71277 71 ft 6 kts 147°
2026-05-04 15:36 2.75669 101.71302 65 ft 6 kts 158°
2026-05-04 15:37 2.75636 101.71305 67 ft 3 kts 186°
2026-05-04 15:37 2.75618 101.71297 71 ft 2 kts 208°
2026-05-04 15:37 2.75605 101.71286 70 ft 3 kts 221°
2026-05-04 15:37 2.75577 101.71259 68 ft 8 kts 227°
2026-05-04 15:38 2.75536 101.71204 68 ft 13 kts 235°
2026-05-04 15:38 2.75477 101.71114 68 ft 16 kts 237°
2026-05-04 15:38 2.75419 101.71025 67 ft 14 kts 236°
2026-05-04 15:38 2.75368 101.70950 66 ft 12 kts 236°
2026-05-04 15:39 2.75347 101.70905 71 ft 1 kts 268°
2026-05-04 15:39 2.75349 101.70895 71 ft 2 kts 283°
2026-05-04 15:39 2.75370 101.70867 66 ft 1 kts 317°
2026-05-04 15:40 2.75372 101.70864 66 ft 1 kts 316°
2026-05-04 15:40 2.75376 101.70861 71 ft 1 kts 319°
2026-05-04 15:40 2.75380 101.70857 69 ft 1 kts 319°
2026-05-04 15:40 2.75386 101.70852 66 ft 1 kts 322°
2026-05-04 15:41 2.75390 101.70850 66 ft 0 kts 323°
2026-05-04 15:41 2.75391 101.70848 66 ft 0 kts 322°
2026-05-04 15:41 2.75392 101.70848 66 ft 0 kts 323°